Location: ??????????
(42.1626°N, 44.1160°E)
Time: 13:46:33
(UTC+00:00)

Okean 1-7 - Pass Details

Date: 03 March 2021
Orbit: 589 x 619 km, 82.5° (Epoch: 14 April)

Event Time Altitude Azimuth Distance (km) Brightness Sun altitude
Rises 16:22:05 0° 355° (N) 2,893 6.7 -16.7°
Reaches altitude 10° 16:24:21 10° 358° (N) 1,979 5.7 -17.2°
Maximum altitude 16:28:42 64° 80° (E) 679 2.9 -18.0°
Enters shadow 16:31:55 17° 159° (SSE) 1,535 4.8 -18.5°
